Other Public Products
Issued by NWS Charleston, SC

Current Version | Previous Version | Text Only | Print | Product List | Glossary Off
Versions: 1 2 3 4 5 6 7 8 9 10 11 12 13 14 15 16 17 18 19 20 21 22 23 24 25 26 27 28 29 30 31 32 33 34 35 36 37 38 39 40 41 42 43 44 45 46 47 48 49 50

000
FPUS82 KCHS 210012
OPUCHS

TEST...KCHS/KSAV Gateway Observations...TEST
National Weather Service Charleston SC
700 PM EST MON NOV 20 2017

NOTE: "fair" indicates few or no clouds below 12,000 feet with no
significant weather and/or obstructions to visibility.

SCZ050-WAZ558-NCZ071-TXZ119-213-PAZ071-DCZ001-FLZ074-172-MI076-
NYZ176-178-MAZ016-IL014-TNZ027-NJZ106-GAZ044-MD014-210100-

...Gateway Observations for Charleston International...

CITY           SKY/WX    TMP DP  RH WIND       PRES   REMARKS
Chas Airport   PTCLDY    50  39  66 SE3       30.25R
6HR MIN TEMP:  50; 6HR MAX TEMP:  63;

Seattle        PTCLDY    49  38  65 SW10      29.91R
6HR MIN TEMP:  48; 6HR MAX TEMP:  50; 6HR PCP:  0.21;

Charlotte      CLOUDY    49  27  42 SW5       30.22S
6HR MIN TEMP:  49; 6HR MAX TEMP:  58;

Dallas DFW     PTCLDY    60  31  33 S12       29.97F
6HR MIN TEMP:  60; 6HR MAX TEMP:  67;

Dallas Love    PTCLDY    60  31  33 S10       29.99F
6HR MIN TEMP:  60; 6HR MAX TEMP:  66;

Philladelphia  CLEAR     44  26  49 SW7       30.15S
6HR MIN TEMP:  44; 6HR MAX TEMP:  48;

Wash National  PTCLDY    45  29  53 S7        30.18S
6HR MIN TEMP:  45; 6HR MAX TEMP:  53;

Baltimore      CLEAR     41  24  51 SW3       30.16S
6HR MIN TEMP:  41; 6HR MAX TEMP:  50;

Miami          MOCLDY    76  66  71 NE8G18    30.03R
6HR MIN TEMP:  75; 6HR MAX TEMP:  80; 6HR PCP:  0.09;

Detroit        PTCLDY    42  30  62 S17       29.88S
6HR MIN TEMP:  42; 6HR MAX TEMP:  48;

Newark         PTCLDY    43  24  47 SW9       30.11R
6HR MIN TEMP:  43; 6HR MAX TEMP:  48;

Laguardia      PTCLDY    46  24  42 SW12G23   30.10R
6HR MIN TEMP:  46; 6HR MAX TEMP:  48;

J F K          PTCLDY    44  27  51 W22       30.12R
6HR MIN TEMP:  44; 6HR MAX TEMP:  47;

Boston Logan   PTCLDY    40  22  48 SW12      29.99R WCI  33
6HR MIN TEMP:  38; 6HR MAX TEMP:  42;

Ft. Lauderdale MOCLDY    75  66  73 NE13G21   30.02R
6HR MIN TEMP:  75; 6HR MAX TEMP:  78;

Chicago O`Hare MOCLDY    50  33  52 S21G30    29.73S
6HR MIN TEMP:  48; 6HR MAX TEMP:  52;

Chicago Midway MOCLDY    48  34  58 S18G31    29.76S
6HR MIN TEMP:  48; 6HR MAX TEMP:  54;

Houston Bush   PTCLDY    59  49  69 SE12      30.06F
6HR MIN TEMP:  59; 6HR MAX TEMP:  68;

Houston Hobby  PTCLDY    60  50  69 E8        30.06S
6HR MIN TEMP:  60; 6HR MAX TEMP:  66;

Nashville      MOCLDY    49  23  36 CALM      30.10S
6HR MIN TEMP:  48; 6HR MAX TEMP:  55;

Atlanta        CLOUDY    52  35  52 SE5       30.15R
6HR MIN TEMP:  50; 6HR MAX TEMP:  60;


$$

GAZ044-118-TXZ119-213-NCZ071-DCZ001-MDZ014-506-PAZ021-071-NJZ106-
NYZ176-178-MAZ106-OHZ011-021-055-MIZ076-KYZ091-ILZ014-INZ047-
MNZ060-ONZ431-210100-

...Gateway Observations for Savannah International...

CITY           SKY/WX    TMP DP  RH WIND       PRES   REMARKS
Savannah Arpt  CLEAR     52  38  58 E6        30.23S
6HR MIN TEMP:  52; 6HR MAX TEMP:  64;

Atlanta        CLOUDY    52  35  52 SE5       30.15R
6HR MIN TEMP:  50; 6HR MAX TEMP:  60;

Charlotte      CLOUDY    49  27  42 SW5       30.22S
6HR MIN TEMP:  49; 6HR MAX TEMP:  58;

Dallas DFW     PTCLDY    60  31  33 S12       29.97F
6HR MIN TEMP:  60; 6HR MAX TEMP:  67;

Houston Bush   PTCLDY    59  49  69 SE12      30.06F
6HR MIN TEMP:  59; 6HR MAX TEMP:  68;

Wash National  PTCLDY    45  29  53 S7        30.18S
6HR MIN TEMP:  45; 6HR MAX TEMP:  53;

Wash Dulles    PTCLDY    42  24  49 S5        30.16F
6HR MIN TEMP:  40; 6HR MAX TEMP:  51;

Baltimore      CLEAR     41  24  51 SW3       30.16S
6HR MIN TEMP:  41; 6HR MAX TEMP:  50;

Philadelphia   CLEAR     44  26  49 SW7       30.15S
6HR MIN TEMP:  44; 6HR MAX TEMP:  48;

Newark         PTCLDY    43  24  47 SW9       30.11R
6HR MIN TEMP:  43; 6HR MAX TEMP:  48;

Laguardia      PTCLDY    46  24  42 SW12G23   30.10R
6HR MIN TEMP:  46; 6HR MAX TEMP:  48;

J F K          PTCLDY    44  27  51 W22       30.12R
6HR MIN TEMP:  44; 6HR MAX TEMP:  47;

Boston         PTCLDY    40  22  48 SW12      29.99R WCI  33
6HR MIN TEMP:  38; 6HR MAX TEMP:  42;

Pittsburg      PTCLDY    38  23  55 S6        30.06F WCI  33
6HR MIN TEMP:  38; 6HR MAX TEMP:  43;

Akron          CLEAR     39  23  52 S13       30.02F WCI  31
6HR MIN TEMP:  39; 6HR MAX TEMP:  43;

Cleveland      PTCLDY    42  25  50 S17G25    29.99F
6HR MIN TEMP:  41; 6HR MAX TEMP:  47;

Cincinnati     CLOUDY    38  28  67 S8        30.07R WCI  32
6HR MIN TEMP:  37; 6HR MAX TEMP:  48;

Columbus       CLOUDY    37  25  62 S9        30.06F WCI  30
Detroit        PTCLDY    42  30  62 S17       29.88S
6HR MIN TEMP:  42; 6HR MAX TEMP:  48;

Chicago O`Hare MOCLDY    50  33  52 S21G30    29.73S
6HR MIN TEMP:  48; 6HR MAX TEMP:  52;

Minneapolis    CLOUDY    47  30  51 SW10      29.45R
6HR MIN TEMP:  43; 6HR MAX TEMP:  48;

Indianapolis   PTCLDY    44  24  45 S14       29.98F
6HR MIN TEMP:  44; 6HR MAX TEMP:  50;

Toronto Canada PTCLDY    41  32  70 SW12      29.86R

$$




USA.gov is the U.S. government's official web portal to all federal, state and local government web resources and services.